Location: Gettysburg
(39.8310°N, 77.2310°W)
Time: 15:51:56
(UTC-04:00)

Envisat - Pass Details

Date: 04 June 2023
Orbit: 763 x 764 km, 98.2° (Epoch: 24 September)

Event Time Altitude Azimuth Distance (km) Brightness Sun altitude
Rises 04:30:53 0° 19° (NNE) 3,235 7.4 -11.7°
Reaches altitude 10° 04:33:18 10° 26° (NNE) 2,305 6.7 -11.4°
Maximum altitude 04:38:09 44° 99° (E) 1,045 4.0 -10.7°
Drops below altitude 10° 04:42:58 10° 171° (S) 2,291 5.2 -10.0°
Sets 04:45:21 0° 178° (S) 3,213 5.9 -9.6°
